Hourly Weather Whyalla

Today, 15 April, Thursday

Time Temperature Precipitation Wind Pressure Humidity
00:00 +15°C° 0 mm 4 mps 765 mmHg 64%
01:00 +15°C° 0 mm 5 mps 765 mmHg 65%
02:00 +15°C° 0 mm 5 mps 764 mmHg 65%
03:00 +15°C° 0 mm 5 mps 764 mmHg 66%
04:00 +14°C° 0 mm 5 mps 764 mmHg 65%
05:00 +14°C° 0 mm 4 mps 765 mmHg 64%
06:00 +14°C° 0 mm 4 mps 765 mmHg 63%
07:00 +15°C° 0 mm 4 mps 765 mmHg 57%
08:00 +18°C° 0 mm 3 mps 766 mmHg 51%
09:00 +19°C° 0 mm 3 mps 766 mmHg 45%
10:00 +20°C° 0 mm 3 mps 765 mmHg 42%
11:00 +21°C° 0 mm 3 mps 765 mmHg 40%
12:00 +22°C° 0 mm 3 mps 765 mmHg 37%
13:00 +22°C° 0 mm 4 mps 765 mmHg 40%
14:00 +22°C° 0 mm 5 mps 764 mmHg 42%
15:00 +22°C° 0 mm 6 mps 764 mmHg 44%
16:00 +21°C° 0 mm 6 mps 764 mmHg 47%
17:00 +20°C° 0 mm 6 mps 765 mmHg 51%
18:00 +19°C° 0 mm 5 mps 765 mmHg 54%
19:00 +19°C° 0 mm 5 mps 765 mmHg 58%
20:00 +17°C° 0 mm 5 mps 766 mmHg 62%
21:00 +18°C° 0 mm 4 mps 766 mmHg 66%
22:00 +18°C° 0.1 mm 4 mps 766 mmHg 68%
23:00 +17°C° 0.1 mm 4 mps 766 mmHg 70%

Tomorrow, 16 April, Friday

Time Temperature Precipitation Wind Pressure Humidity
00:00 +17°C° 0.1 mm 4 mps 766 mmHg 72%
01:00 +17°C° 0.2 mm 3 mps 766 mmHg 75%
02:00 +16°C° 0.2 mm 3 mps 766 mmHg 78%
03:00 +16°C° 0.2 mm 3 mps 766 mmHg 81%
04:00 +15°C° 0.1 mm 2 mps 767 mmHg 82%
05:00 +15°C° 0.1 mm 2 mps 767 mmHg 83%
06:00 +15°C° 0.1 mm 2 mps 767 mmHg 83%
07:00 +16°C° 0.3 mm 2 mps 767 mmHg 77%
08:00 +17°C° 0.3 mm 2 mps 768 mmHg 71%
09:00 +19°C° 0.3 mm 2 mps 768 mmHg 65%
10:00 +20°C° 0.2 mm 2 mps 768 mmHg 59%
11:00 +21°C° 0.2 mm 2 mps 768 mmHg 53%
12:00 +23°C° 0.2 mm 2 mps 767 mmHg 47%
13:00 +22°C° 0 mm 3 mps 767 mmHg 47%
14:00 +22°C° 0 mm 4 mps 767 mmHg 47%
15:00 +22°C° 0 mm 5 mps 766 mmHg 47%
16:00 +21°C° 0 mm 5 mps 767 mmHg 52%
17:00 +20°C° 0 mm 6 mps 767 mmHg 57%
18:00 +19°C° 0 mm 6 mps 768 mmHg 62%
19:00 +19°C° 0 mm 5 mps 768 mmHg 65%
20:00 +17°C° 0 mm 5 mps 768 mmHg 67%
21:00 +17°C° 0 mm 5 mps 769 mmHg 70%
22:00 +17°C° 0 mm 5 mps 769 mmHg 71%
23:00 +17°C° 0 mm 4 mps 769 mmHg 73%

Day after tomorrow, 17 April, Saturday

Time Temperature Precipitation Wind Pressure Humidity
00:00 +17°C° 0 mm 4 mps 769 mmHg 75%
01:00 +17°C° 0 mm 4 mps 769 mmHg 76%
02:00 +15°C° 0 mm 4 mps 769 mmHg 77%
03:00 +15°C° 0 mm 4 mps 769 mmHg 79%
04:00 +15°C° 0 mm 4 mps 769 mmHg 79%
05:00 +15°C° 0 mm 4 mps 769 mmHg 79%
06:00 +15°C° 0 mm 4 mps 770 mmHg 79%
07:00 +17°C° 0 mm 4 mps 770 mmHg 73%
08:00 +18°C° 0 mm 4 mps 770 mmHg 68%
09:00 +19°C° 0 mm 4 mps 771 mmHg 63%
10:00 +19°C° 0 mm 4 mps 770 mmHg 58%
11:00 +20°C° 0 mm 5 mps 770 mmHg 54%
12:00 +21°C° 0 mm 5 mps 770 mmHg 49%
13:00 +21°C° 0 mm 6 mps 769 mmHg 47%
14:00 +21°C° 0 mm 6 mps 769 mmHg 44%
15:00 +21°C° 0 mm 7 mps 769 mmHg 41%
16:00 +20°C° 0 mm 6 mps 769 mmHg 46%
17:00 +19°C° 0 mm 6 mps 769 mmHg 51%
18:00 +17°C° 0 mm 6 mps 769 mmHg 56%
19:00 +16°C° 0 mm 5 mps 769 mmHg 60%
20:00 +16°C° 0 mm 5 mps 769 mmHg 65%
21:00 +16°C° 0 mm 5 mps 769 mmHg 69%
22:00 +17°C° 0 mm 4 mps 769 mmHg 71%
23:00 +17°C° 0 mm 4 mps 769 mmHg 73%

18 April, Sunday

Time Temperature Precipitation Wind Pressure Humidity
00:00 +16°C° 0 mm 3 mps 769 mmHg 75%
01:00 +17°C° 0 mm 3 mps 769 mmHg 75%
02:00 +17°C° 0 mm 3 mps 768 mmHg 74%
03:00 +17°C° 0 mm 3 mps 768 mmHg 74%
04:00 +17°C° 0 mm 3 mps 768 mmHg 73%
05:00 +17°C° 0 mm 3 mps 769 mmHg 73%
06:00 +17°C° 0 mm 2 mps 769 mmHg 73%
07:00 +17°C° 0 mm 2 mps 769 mmHg 68%
08:00 +18°C° 0 mm 2 mps 769 mmHg 64%
09:00 +19°C° 0 mm 2 mps 769 mmHg 59%
10:00 +20°C° 0 mm 3 mps 768 mmHg 55%
11:00 +21°C° 0 mm 3 mps 768 mmHg 52%
12:00 +21°C° 0 mm 4 mps 768 mmHg 49%
13:00 +21°C° 0 mm 4 mps 767 mmHg 50%
14:00 +21°C° 0 mm 5 mps 767 mmHg 50%
15:00 +21°C° 0 mm 6 mps 766 mmHg 50%
16:00 +20°C° 0 mm 5 mps 766 mmHg 52%
17:00 +19°C° 0 mm 5 mps 766 mmHg 54%
18:00 +18°C° 0 mm 4 mps 766 mmHg 56%
19:00 +18°C° 0 mm 4 mps 766 mmHg 58%
20:00 +18°C° 0 mm 3 mps 766 mmHg 59%
21:00 +18°C° 0 mm 3 mps 766 mmHg 60%
22:00 +17°C° 0 mm 3 mps 766 mmHg 62%
23:00 +17°C° 0 mm 3 mps 766 mmHg 63%

19 April, Monday

Time Temperature Precipitation Wind Pressure Humidity
00:00 +17°C° 0 mm 3 mps 766 mmHg 64%
01:00 +17°C° 0 mm 3 mps 765 mmHg 65%
02:00 +16°C° 0 mm 2 mps 765 mmHg 66%
03:00 +16°C° 0 mm 2 mps 765 mmHg 67%
04:00 +16°C° 0 mm 2 mps 765 mmHg 70%
05:00 +15°C° 0 mm 1 mps 765 mmHg 72%
06:00 +15°C° 0 mm 1 mps 765 mmHg 74%
07:00 +16°C° 0 mm 1 mps 765 mmHg 67%
08:00 +19°C° 0 mm 1 mps 765 mmHg 61%
09:00 +18°C° 0 mm 0 mps 765 mmHg 55%
10:00 +21°C° 0 mm 1 mps 764 mmHg 50%
11:00 +22°C° 0 mm 1 mps 764 mmHg 44%
12:00 +23°C° 0 mm 1 mps 763 mmHg 39%
13:00 +24°C° 0 mm 2 mps 763 mmHg 36%
14:00 +25°C° 0 mm 2 mps 762 mmHg 34%
15:00 +25°C° 0 mm 2 mps 761 mmHg 31%
16:00 +24°C° 0 mm 2 mps 761 mmHg 34%
17:00 +23°C° 0 mm 2 mps 761 mmHg 37%
18:00 +21°C° 0 mm 2 mps 761 mmHg 40%
19:00 +20°C° 0 mm 3 mps 762 mmHg 43%
20:00 +20°C° 0 mm 3 mps 762 mmHg 46%
21:00 +19°C° 0 mm 4 mps 762 mmHg 48%
22:00 +18°C° 0 mm 4 mps 762 mmHg 53%
23:00 +17°C° 0 mm 4 mps 762 mmHg 57%

20 April, Tuesday

Time Temperature Precipitation Wind Pressure Humidity
00:00 +15°C° 0 mm 4 mps 762 mmHg 61%
01:00 +15°C° 0 mm 4 mps 762 mmHg 62%
02:00 +14°C° 0 mm 3 mps 762 mmHg 64%
03:00 +15°C° 0 mm 2 mps 762 mmHg 65%
04:00 +13°C° 0 mm 3 mps 762 mmHg 69%
05:00 +13°C° 0 mm 3 mps 763 mmHg 72%
06:00 +12°C° 0 mm 4 mps 763 mmHg 76%
07:00 +14°C° 0 mm 4 mps 763 mmHg 70%
08:00 +16°C° 0 mm 3 mps 763 mmHg 64%
09:00 +18°C° 0 mm 3 mps 764 mmHg 58%
10:00 +19°C° 0 mm 3 mps 763 mmHg 52%
11:00 +21°C° 0 mm 2 mps 763 mmHg 45%
12:00 +23°C° 0 mm 2 mps 762 mmHg 39%
13:00 +22°C° 0 mm 3 mps 762 mmHg 41%
14:00 +22°C° 0 mm 3 mps 762 mmHg 42%
15:00 +22°C° 0 mm 4 mps 761 mmHg 44%
16:00 +21°C° 0 mm 3 mps 761 mmHg 49%
17:00 +20°C° 0 mm 2 mps 762 mmHg 54%
18:00 +20°C° 0 mm 1 mps 762 mmHg 58%
19:00 +19°C° 0 mm 2 mps 762 mmHg 60%
20:00 +19°C° 0 mm 2 mps 762 mmHg 62%
21:00 +18°C° 0 mm 2 mps 763 mmHg 63%
22:00 +17°C° 0 mm 3 mps 763 mmHg 66%
23:00 +17°C° 0 mm 3 mps 762 mmHg 68%
Show more

We Need Your Consent

Meteoprog and our Service Providers may store and access personal data such as cookies, device identifiers or other similar technologies on your device and process such data to personalise content and ads, as well as provide social media features and to analyse the traffic.

  • Store and/or access information on your device

    Cookies, device identifiers or other information can be stored or accessed on your device for the purposes indicated above.

  • Personalised ads and content, ad and content measurement, audience insights, and products development

    Ads and content can be personalised based on a profile. More data can be added to better personalise ads and content. Ad and content performance can be measured. Insights about the audience who saw the ads and content can be derived. Such data can be used to develop or improve user’s experience, systems and software.

By clicking ‘I Agree’ you will allow the use of indicated cookies, device identifiers, web beacons or other similar technologies. Your settings can be changed in the browser on your device.

For certain purposes, legitimate interests may be relied on, rather than consent. You can read more about this in our Privacy and Cookie Policy.